Theta_e
321 314 314 314 306 304 300 304 305 304 304 311 313 310 309 313 317 314 332 332 338 342 346 350 350 353 353 352 351 349 349 349 346 346 345 344 343 342 341 342 343 342 339 338 338 341 340 341 341
313 313 313 311 301 297 299 306 304 307 309 310 311 312 309 313 328 328 328 334 339 343 346 349 347 351 352 351 350 349 349 348 347 344 343 341 340 338 339 340 342 340 337 337 338 338 338 338 338
315 312 307 305 301 297 299 305 305 308 311 310 311 317 315 321 328 330 335 334 339 343 344 347 346 350 351 350 349 349 348 347 346 344 342 341 339 339 338 339 341 340 337 336 336 336 336 336 335
310 308 306 299 298 303 304 305 307 307 308 313 313 309 324 331 330 334 336 334 338 343 344 343 347 350 349 349 349 348 347 346 346 345 344 341 341 342 342 341 340 340 337 337 337 336 335 335 335
309 306 298 298 299 304 305 305 302 301 302 304 310 306 314 331 335 336 333 334 336 341 345 346 345 348 348 348 348 347 346 345 345 344 344 343 342 342 341 342 341 341 339 338 337 336 336 336 335
302 301 295 296 299 302 301 302 300 301 302 304 304 305 319 331 333 333 333 332 337 340 344 345 339 341 344 345 346 345 344 345 344 344 344 344 342 341 342 341 341 339 337 336 334 334 334 333 332
300 298 294 295 294 298 298 302 300 300 301 302 309 304 321 330 334 334 330 332 335 343 344 344 344 341 336 340 341 342 342 343 343 343 343 342 341 341 341 341 341 339 337 336 336 336 336 335 333
303 300 296 294 292 295 298 300 301 300 299 306 309 306 314 328 334 335 330 330 333 340 343 343 343 342 343 342 335 336 338 339 339 339 337 335 336 336 336 335 338 339 338 336 336 336 335 335 333
305 296 297 297 293 294 300 298 302 303 300 302 310 315 322 332 332 331 329 329 335 336 339 343 342 342 342 341 336 332 333 334 334 334 331 329 335 335 333 332 335 337 336 337 336 335 334 332 330
298 295 293 299 300 298 302 302 300 299 299 300 302 305 311 330 327 327 327 326 332 332 336 340 341 341 341 342 339 341 339 338 337 336 333 335 332 333 334 328 330 332 332 335 335 333 329 326 322
301 295 301 303 305 302 302 303 304 300 297 299 299 302 304 304 323 325 328 328 329 332 335 338 340 341 341 340 339 340 340 338 336 334 335 332 329 329 330 331 329 328 325 330 328 324 322 318 315
300 304 303 303 305 301 300 303 301 302 299 302 302 303 304 303 305 320 324 329 329 331 334 336 338 340 340 339 340 339 338 338 337 335 334 331 329 327 330 332 331 329 327 327 326 325 318 315 311
300 302 304 304 303 300 301 298 298 298 301 304 304 304 302 303 302 303 313 326 331 331 332 336 336 337 338 338 339 338 337 338 337 336 335 333 330 328 328 329 329 329 328 327 329 322 317 311 308
295 296 296 297 298 298 296 298 300 300 302 303 304 303 301 300 299 299 300 300 301 315 331 333 334 336 336 336 336 337 337 338 336 336 335 334 331 328 327 327 327 328 329 329 327 320 314 310 307
296 292 296 295 297 295 298 294 294 300 301 299 300 302 300 299 299 298 299 299 301 303 306 330 332 333 335 334 335 336 335 336 335 336 334 333 333 329 326 326 326 327 327 323 317 315 312 308 306
294 292 289 293 295 296 295 289 294 298 297 295 296 297 297 298 299 299 300 300 301 302 302 305 315 332 333 334 334 335 335 334 335 335 334 333 333 330 327 326 326 326 320 316 312 309 308 307 305
288 284 286 289 293 291 291 288 294 296 295 293 294 295 296 296 298 299 300 300 301 301 301 302 305 306 329 333 333 333 333 333 334 334 335 332 332 331 329 328 327 322 317 313 311 311 310 303 301
280 281 284 282 287 287 288 288 291 293 293 292 292 293 293 293 293 296 297 298 300 300 301 301 302 304 306 313 332 331 332 333 333 333 333 333 332 331 330 327 326 320 315 312 313 310 306 303 302
285 283 281 282 285 283 286 288 289 290 289 289 289 289 289 290 293 294 295 296 296 297 298 300 300 301 303 305 307 329 328 330 331 332 332 333 332 331 330 328 323 318 315 313 310 306 302 301 301
285 280 277 281 283 282 284 286 287 288 287 288 287 288 288 289 290 291 293 294 294 294 295 298 300 300 301 304 306 308 327 330 331 331 331 332 332 331 330 329 319 315 311 310 308 306 301 301 302
281 276 276 277 282 284 285 284 285 287 287 287 287 288 288 288 288 289 290 291 292 292 293 295 298 299 299 300 304 309 314 318 322 327 328 329 331 329 330 329 319 312 311 310 308 306 302 299 300
277 280 279 280 277 271 283 273 283 284 283 284 284 284 286 287 288 289 289 290 291 292 293 294 295 298 300 300 299 301 306 309 317 325 325 326 325 326 327 326 317 312 311 310 307 305 303 301 297
278 280 280 280 277 276 278 273 278 282 279 280 281 283 284 286 286 287 288 290 290 292 292 292 293 295 298 299 298 298 299 304 309 320 319 319 316 318 318 315 312 311 310 307 305 304 304 303 299
282 280 282 283 279 270 274 272 272 276 277 279 281 282 283 284 286 286 287 288 288 289 290 291 291 293 295 298 298 297 297 299 303 311 317 315 315 314 313 312 312 310 308 306 305 304 304 303 301
279 276 266 264 265 266 275 270 273 278 279 280 280 280 282 283 284 285 285 286 286 287 287 289 290 290 293 294 297 297 297 298 300 304 313 315 311 309 309 310 307 307 307 306 305 303 303 302 301
276 274 265 256 263 266 274 266 273 280 281 282 282 281 281 282 283 284 285 285 286 286 287 287 288 289 291 292 294 296 297 297 299 301 304 314 311 310 309 307 308 307 305 304 303 302 301 301 300
274 269 276 264 263 262 270 274 279 281 281 280 279 279 280 280 282 283 284 285 285 286 286 287 287 288 289 291 293 294 295 296 296 298 302 308 309 308 307 305 305 303 302 302 301 300 299 299 299
276 276 267 266 255 255 267 268 268 276 274 277 277 278 280 281 282 282 283 284 284 286 286 286 287 287 288 290 292 292 294 295 295 296 298 301 307 306 304 301 301 299 299 299 299 298 298 298 297
272 271 271 267 266 258 259 265 274 274 275 274 276 278 279 280 281 281 282 283 283 285 285 285 286 286 287 289 290 291 292 294 294 294 295 297 299 303 302 301 299 298 297 297 297 297 297 296 296
274 271 271 260 261 266 266 265 278 276 277 277 277 279 280 281 281 281 282 282 283 283 284 284 285 285 287 288 289 290 291 292 293 292 293 294 296 298 299 298 297 296 295 296 296 295 296 295 294
Wind_Speed
17 11 5 3 3 3 7 2 4 3 3 7 8 6 6 8 6 4 4 5 18 19 17 15 17 18 17 17 17 16 16 16 16 15 14 13 13 12 12 11 10 11 11 11 12 12 12 12 13
9 14 3 4 3 4 4 5 6 8 7 7 6 5 3 6 8 6 5 2 16 18 16 15 16 18 19 18 17 16 15 15 15 16 15 14 14 13 12 12 10 10 11 10 10 11 11 11 11
10 10 3 3 4 7 4 7 9 5 6 5 5 2 5 5 9 7 8 7 15 17 15 15 16 18 19 19 17 16 15 14 15 15 15 15 15 14 14 13 11 12 12 11 11 11 11 11 11
5 3 4 3 9 8 5 9 10 8 4 5 5 6 6 7 4 6 9 10 14 16 15 17 15 18 18 18 16 16 15 14 14 14 14 14 14 13 12 12 12 12 12 12 11 10 10 10 9
3 4 4 6 10 11 5 9 9 7 7 7 7 6 5 6 6 7 6 9 12 15 14 16 13 16 18 18 16 15 15 13 13 14 13 13 12 12 11 11 11 10 11 10 10 10 9 9 8
3 1 3 7 8 2 9 10 7 9 9 13 9 9 6 3 7 5 5 7 9 12 15 14 12 11 13 17 14 13 14 12 13 13 13 13 12 11 11 11 10 10 10 10 9 9 9 8 7
2 2 5 5 6 6 11 9 9 8 11 9 7 8 8 13 10 4 3 7 8 14 14 12 12 11 11 13 12 11 13 11 11 11 11 11 11 10 10 10 10 9 10 10 9 8 8 7 6
5 1 6 1 6 5 11 10 14 10 6 8 8 8 8 9 10 9 2 4 6 10 11 12 11 9 9 9 12 9 12 12 11 11 9 9 10 9 9 9 9 9 9 9 8 7 6 5 4
11 4 6 2 5 5 9 9 10 9 7 7 10 10 7 12 9 9 5 1 8 6 5 6 10 9 10 9 8 9 12 11 9 9 10 8 5 6 8 7 9 9 9 9 8 6 6 5 4
4 4 5 11 11 7 7 7 8 8 9 14 16 10 9 8 7 7 8 4 8 6 1 3 6 9 9 9 8 7 8 7 6 6 6 6 6 6 8 7 10 10 9 9 7 6 5 5 3
4 4 5 8 12 8 11 11 8 8 11 10 11 15 11 7 6 4 3 10 8 11 8 4 4 8 9 7 7 5 4 5 6 7 7 5 5 5 4 5 4 4 6 3 4 4 3 1 4
1 4 3 6 12 9 8 11 8 6 10 11 11 12 15 17 16 2 4 4 12 6 13 11 8 7 6 4 7 8 6 6 5 8 9 5 3 5 5 5 6 5 4 5 5 3 4 3 2
2 6 7 9 12 5 6 16 16 15 12 15 16 19 17 18 23 25 18 5 4 13 5 9 11 7 5 6 5 5 5 7 6 7 9 6 5 5 4 5 5 6 7 5 4 5 4 3 2
4 5 2 2 2 11 6 6 7 13 14 14 14 17 22 23 25 26 26 21 23 20 6 6 5 7 5 5 6 4 4 4 5 5 7 10 5 5 5 4 5 5 5 4 4 5 5 4 4
3 3 6 8 9 7 10 10 8 5 12 17 21 15 20 23 23 22 22 22 22 19 24 11 6 5 3 6 5 5 3 4 3 4 7 10 6 6 6 5 4 4 4 6 4 4 4 4 3
4 1 3 15 14 8 11 9 17 16 17 18 20 18 19 22 21 20 20 21 22 22 23 19 20 5 6 5 5 4 5 5 5 5 4 9 9 7 6 5 5 5 4 4 4 4 4 4 4
10 6 8 4 16 12 7 6 14 17 17 17 17 18 18 19 22 21 22 20 20 21 22 21 20 21 10 8 5 6 6 6 7 7 7 6 10 7 6 5 5 7 5 4 5 4 4 4 3
7 6 7 10 10 13 7 12 13 15 16 16 16 17 17 18 20 20 21 20 20 20 20 20 17 20 19 15 5 4 6 7 7 8 9 6 7 10 7 5 6 8 5 5 6 5 3 4 5
7 8 7 6 12 10 6 12 11 14 16 16 16 16 16 17 16 16 18 18 20 20 21 21 21 21 16 12 11 6 7 8 8 8 12 14 8 11 12 6 8 8 8 9 8 4 6 2 4
7 9 8 8 13 7 7 12 13 13 15 15 15 15 16 16 18 19 19 19 20 20 20 21 20 20 16 12 13 8 10 7 9 9 11 13 12 11 12 10 8 10 6 7 9 7 4 3 5
12 10 10 6 12 3 7 8 11 15 16 13 14 14 14 16 18 19 19 19 18 20 21 20 20 19 17 19 13 12 11 4 3 7 8 12 14 11 13 13 10 10 9 10 11 11 10 5 4
4 14 13 8 5 2 5 1 6 8 13 14 13 13 14 16 16 16 17 19 18 17 17 20 20 19 16 18 15 17 11 12 6 9 8 8 8 9 10 13 11 12 10 11 10 9 8 5 6
5 20 13 9 2 3 3 3 6 7 9 11 12 13 11 11 14 16 16 16 16 16 16 16 19 20 20 18 17 12 14 11 13 7 7 8 6 6 7 5 8 10 9 10 12 11 10 6 6
16 14 2 4 3 1 3 4 1 3 4 8 10 12 13 13 12 13 13 14 14 16 17 17 19 19 21 20 18 16 16 17 14 15 7 7 7 7 6 6 8 8 9 10 11 10 11 7 3
17 11 5 6 5 4 8 4 3 6 5 6 8 10 12 13 13 13 14 14 14 16 17 17 19 20 20 21 20 19 18 16 15 15 13 9 6 6 11 12 10 9 11 10 9 10 8 7 6
7 4 4 2 4 5 12 5 4 7 4 3 6 10 8 9 9 10 12 12 13 15 16 17 18 19 19 19 21 18 18 12 11 13 13 10 6 8 11 12 12 12 12 11 10 5 5 6 5
8 6 3 1 2 2 5 3 5 5 5 8 11 9 9 10 9 9 8 10 12 12 14 15 17 18 18 19 17 19 17 17 16 17 14 12 4 3 6 8 10 9 8 8 11 9 9 8 6
4 3 2 3 4 6 5 5 2 3 7 8 8 10 10 9 9 10 8 7 8 10 11 12 13 15 17 18 15 15 18 17 16 15 16 14 14 5 8 9 10 9 10 10 12 10 10 11 6
3 2 3 2 2 3 6 6 7 7 3 4 6 7 7 7 8 8 7 6 7 9 8 10 12 13 15 16 16 16 17 17 15 14 15 15 13 11 7 8 9 10 12 12 11 10 13 11 9
2 2 2 5 5 3 5 8 12 5 3 5 7 7 7 8 9 7 8 6 8 9 10 11 11 11 11 13 15 15 15 17 15 15 15 15 15 11 7 5 6 9 10 11 12 12 14 17 14
Wind_Direction
304 278 240 290 250 216 274 85 41 321 22 35 347 349 337 295 30 78 179 86 126 130 144 146 146 146 139 134 133 134 137 137 134 131 128 124 120 118 116 114 107 106 99 99 90 84 85 76 76
307 300 248 272 254 237 256 172 116 50 33 345 286 298 260 94 73 98 138 156 131 134 144 148 147 141 138 137 138 141 141 139 137 135 132 128 123 121 123 116 114 113 111 105 97 92 88 82 77
262 268 261 201 221 252 272 104 80 69 104 7 337 31 331 23 43 129 94 154 133 136 153 145 148 145 143 141 143 143 142 142 140 139 137 133 130 124 120 117 109 111 112 110 103 97 92 89 84
318 210 261 248 260 239 286 65 40 3 9 118 26 322 78 44 51 41 129 144 135 139 157 142 149 150 145 141 147 144 143 146 144 142 141 139 133 126 120 119 120 121 120 113 104 98 94 91 87
221 270 254 210 245 273 42 30 30 351 317 316 88 318 49 51 69 106 145 139 137 142 129 144 146 150 151 149 152 152 143 151 150 147 146 140 135 131 128 123 119 119 121 117 113 108 101 95 89
296 239 264 235 235 234 56 38 7 13 -0 24 18 325 68 66 67 90 161 151 139 137 135 144 140 145 155 147 155 157 156 157 153 153 151 146 142 138 134 131 127 124 124 118 112 108 105 103 94
270 247 266 321 354 6 40 2 40 13 33 8 343 343 63 45 12 61 207 146 142 123 136 149 154 159 155 144 153 161 156 155 155 155 150 147 141 138 134 129 126 129 128 124 117 110 104 98 89
322 323 300 121 38 47 25 6 30 22 358 320 13 32 18 30 8 339 250 139 138 108 136 155 161 170 160 161 159 167 153 155 157 152 146 140 141 141 137 133 137 135 131 130 126 118 109 106 99
316 23 226 254 47 23 14 9 7 324 5 347 68 69 17 59 12 346 345 71 78 56 90 145 163 171 165 166 164 154 151 155 153 151 151 145 155 159 147 169 145 141 140 140 138 134 139 145 148
70 19 333 342 37 31 24 4 17 353 337 14 4 13 48 82 54 8 335 284 130 135 85 232 182 173 172 173 161 169 160 163 169 167 164 175 180 169 171 148 150 152 153 150 148 157 186 198 201
142 137 319 338 10 8 347 356 342 354 8 5 359 3 7 337 131 129 289 303 292 164 167 209 211 193 188 178 161 178 165 170 182 174 169 209 203 166 151 140 146 139 156 166 162 184 225 82 25
82 160 149 315 328 342 338 306 325 10 34 24 19 14 23 20 9 140 181 258 306 315 175 175 210 221 192 162 168 177 174 180 187 180 169 201 206 161 152 157 165 161 173 195 191 191 126 99 64
212 183 163 217 230 243 320 15 14 37 5 15 14 24 18 16 15 17 9 343 303 325 347 187 188 220 213 180 180 183 181 176 190 182 172 186 179 166 188 170 171 179 175 198 188 137 139 141 123
331 340 323 263 338 43 19 83 35 333 356 14 11 16 37 27 20 16 10 7 6 347 284 313 290 209 194 201 200 211 156 175 170 194 186 189 176 166 187 196 179 182 167 166 165 153 155 158 145
312 312 83 43 21 35 338 84 120 33 349 28 21 28 33 32 25 18 9 3 1 355 1 311 259 295 228 223 216 196 189 158 205 191 191 188 186 177 180 191 184 177 135 126 103 131 141 142 154
337 265 98 63 32 9 342 85 33 32 56 37 36 27 30 32 27 19 16 5 2 3 2 349 345 239 230 241 230 202 187 170 196 217 217 191 195 186 187 179 188 146 121 132 139 160 167 173 172
25 21 35 77 39 4 356 30 40 48 52 48 40 30 28 25 21 20 15 9 8 4 0 356 356 2 300 218 223 221 206 189 195 207 223 209 189 195 183 179 171 145 142 156 172 188 164 155 160
350 0 356 22 22 349 18 75 54 48 49 48 39 32 28 20 16 11 12 7 8 4 0 0 359 358 345 341 233 206 216 208 203 200 213 214 208 190 204 190 160 152 149 170 198 169 161 154 161
9 27 24 334 26 341 343 97 71 57 47 38 34 27 21 19 11 14 14 10 5 8 5 0 357 356 352 345 342 260 221 216 207 205 208 214 218 205 201 198 154 162 171 186 186 149 152 128 136
71 30 14 321 341 322 313 111 87 67 60 48 36 29 22 14 13 14 15 11 10 5 4 0 356 354 351 347 330 311 278 217 214 206 209 214 211 205 205 195 171 171 165 179 176 157 144 157 176
75 33 350 314 317 239 31 132 122 86 63 49 42 33 24 17 13 10 9 9 8 6 2 358 355 352 353 349 338 332 335 307 207 215 210 214 220 200 207 198 177 172 176 190 185 173 166 159 207
320 357 320 312 10 317 346 126 97 67 56 43 36 29 21 12 11 8 5 4 6 5 359 354 356 354 353 350 348 340 324 326 266 215 215 211 215 226 199 198 173 178 185 190 185 180 177 138 170
316 313 289 273 255 62 353 76 102 82 33 31 28 22 22 18 9 4 4 2 0 359 358 355 353 355 352 352 352 345 335 323 328 238 218 207 208 219 207 210 181 186 192 190 181 175 176 179 173
324 322 255 118 123 78 200 76 87 33 26 17 13 12 10 6 9 3 1 0 0 358 357 354 355 353 354 350 348 349 340 333 330 326 217 211 213 201 223 197 200 200 198 194 185 177 181 179 213
358 351 1 9 15 206 25 354 133 125 67 32 8 3 1 358 358 357 357 357 356 359 356 352 351 350 350 352 346 345 343 337 330 321 307 209 202 202 200 203 196 197 198 200 184 162 162 170 193
325 7 93 235 332 296 307 251 176 135 105 312 10 4 0 347 350 349 352 352 352 353 353 352 349 344 346 348 347 340 338 336 332 332 321 292 252 221 204 204 206 208 199 174 156 158 156 160 172
319 43 342 317 237 18 244 76 142 175 227 16 9 4 356 347 339 342 343 351 347 349 350 348 346 343 341 342 343 343 336 336 334 329 320 316 246 216 229 209 198 185 181 203 164 160 166 165 152
54 4 58 349 358 305 286 289 229 200 29 357 1 3 357 340 341 339 338 345 351 339 342 343 343 341 338 337 337 339 336 332 331 329 330 330 315 244 195 193 191 180 172 178 180 158 157 159 144
330 64 27 118 173 216 304 261 177 124 106 349 354 341 340 334 335 325 327 338 340 332 335 335 339 339 338 337 334 335 340 332 329 329 329 328 322 309 252 211 196 185 180 179 173 187 151 149 152
37 58 72 110 300 283 270 269 277 176 139 53 351 332 332 331 309 319 323 337 341 326 331 332 332 336 334 332 330 329 332 338 328 326 326 328 320 312 291 252 204 187 186 175 179 178 176 157 160